DW0931 Weather Reports


time (UTC)temp
C
wind
direction
speed
KPH
gust
KPH
rain 1hr
cm
rain 24hr
cm
rain mn
cm
humidity
%
barometer
mb
20260504160353 22 5 0.0 0.0 0.00 0.00 0.00 38 1008.9
20260504150258 21 5 0.0 0.0 0.00 0.00 0.00 40 1008.9
20260504141148 19 5 0.0 0.0 0.00 0.00 0.00 44 1007.8
20260504140133 19 5 0.0 0.0 0.00 0.00 0.00 44 1007.8
20260504140128 19 5 0.0 0.0 0.00 0.00 0.00 46 1007.7
20260504081746 22 5 0.0 0.0 0.00 0.00 0.00 34 1006.3
20260504080746 22 5 0.0 0.0 0.00 0.00 0.00 33 1006.4
20260504050449 25 5 0.0 0.0 0.00 0.00 0.00 21 1006.5
20260504045448 25 5 0.0 0.0 0.00 0.00 0.00 20 1006.6
20260504044449 25 5 0.0 0.0 0.00 0.00 0.00 20 1006.5
20260504043445 25 5 0.0 0.0 0.00 0.00 0.00 19 1006.4
20260504042445 26 5 0.0 0.0 0.00 0.00 0.00 19 1006.3
20260504041427 26 5 0.0 0.0 0.00 0.00 0.00 18 1006.1
20260504040409 26 5 0.0 0.0 0.00 0.00 0.00 17 1005.8
20260504035409 26 5 0.0 0.0 0.00 0.00 0.00 16 1005.5
20260504034354 27 5 0.0 0.0 0.00 0.00 0.00 15 1005.1
20260504033353 27 5 0.0 0.0 0.00 0.00 0.00 15 1004.9
20260504032351 27 5 0.0 0.0 0.00 0.00 0.00 15 1004.7
20260504031354 27 5 0.0 0.0 0.00 0.00 0.00 15 1004.4
20260504031349 27 5 0.0 0.0 0.00 0.00 0.00 15 1004.2
20260504030324 27 5 0.0 0.0 0.00 0.00 0.00 16 1004.0
20260504024323 28 5 0.0 0.0 0.00 0.00 0.00 16 1003.8
20260504023319 28 5 0.0 0.0 0.00 0.00 0.00 16 1003.7
20260504022304 28 5 0.0 0.0 0.00 0.00 0.00 16 1003.5
20260504020256 29 5 0.0 0.0 0.00 0.00 0.00 14 1003.1
20260504015257 29 5 0.0 0.0 0.00 0.00 0.00 14 1003.0
20260504014257 30 5 0.0 0.0 0.00 0.00 0.00 13 1002.9
20260504013259 30 5 0.0 0.0 0.00 0.00 0.00 13 1002.7
20260504013255 31 5 0.0 0.0 0.00 0.00 0.00 12 1002.5
20260504011253 31 5 0.0 0.0 0.00 0.00 0.00 12 1002.5
20260504010253 32 5 0.0 0.0 0.00 0.00 0.00 12 1002.6
20260504005251 32 5 0.0 0.0 0.00 0.00 0.00 12 1002.6
20260504004251 33 5 0.0 0.0 0.00 0.00 0.00 11 1002.6
20260504003247 33 5 0.0 0.0 0.00 0.00 0.00 10 1002.3
20260504001237 34 5 0.0 0.0 0.00 0.00 0.00 10 1002.4
20260504000219 34 5 0.0 0.0 0.00 0.00 0.00 11 1002.4
20260503235201 35 5 0.0 0.0 0.00 0.00 0.00 10 1002.4
20260503234157 35 5 0.0 0.0 0.00 0.00 0.00 10 1002.3
20260503233156 35 5 0.0 0.0 0.00 0.00 0.00 10 1002.6
20260503232158 36 5 0.0 0.0 0.00 0.00 0.00 10 1002.8
20260503232152 36 5 0.0 0.0 0.00 0.00 0.00 10 1003.0
20260503230152 36 5 0.0 0.0 0.00 0.00 0.00 9 1003.1
20260503225147 35 5 0.0 0.0 0.00 0.00 0.00 10 1003.3
20260503224143 35 5 0.0 0.0 0.00 0.00 0.00 10 1003.5
20260503223119 35 5 0.0 0.0 0.00 0.00 0.00 10 1003.8
20260503222115 35 5 0.0 0.0 0.00 0.00 0.00 11 1004.1
20260503221053 35 5 0.0 0.0 0.00 0.00 0.00 11 1004.2
20260503220029 35 5 0.0 0.0 0.00 0.00 0.00 11 1004.3
20260503215021 35 5 0.0 0.0 0.00 0.00 0.00 11 1004.4
20260503215016 35 5 0.0 0.0 0.00 0.00 0.00 11 1004.4
20260503212957 36 5 0.0 0.0 0.00 0.00 0.00 12 1004.5
20260503211957 35 5 0.0 0.0 0.00 0.00 0.00 12 1005.0
20260503210952 35 5 0.0 0.0 0.00 0.00 0.00 13 1005.1
20260503210104 35 5 0.0 0.0 0.00 0.00 0.00 15 1005.1
20260503203953 35 5 0.0 0.0 0.00 0.00 0.00 15 1005.5
20260503202953 35 5 0.0 0.0 0.00 0.00 0.00 15 1005.7
20260503201951 34 5 0.0 0.0 0.00 0.00 0.00 16 1005.8
20260503200949 34 5 0.0 0.0 0.00 0.00 0.00 16 1006.0
20260503195949 34 5 0.0 0.0 0.00 0.00 0.00 15 1006.2
20260503194945 33 5 0.0 0.0 0.00 0.00 0.00 15 1006.3
20260503193945 33 5 0.0 0.0 0.00 0.00 0.00 15 1006.6
20260503192931 34 5 0.0 0.0 0.00 0.00 0.00 14 1006.6
20260503192915 33 5 0.0 0.0 0.00 0.00 0.00 14 1006.8
20260503190858 33 5 0.0 0.0 0.00 0.00 0.00 15 1007.2
20260503190853 33 5 0.0 0.0 0.00 0.00 0.00 15 1007.2
20260503184854 33 5 0.0 0.0 0.00 0.00 0.00 15 1007.4
20260503183853 32 5 0.0 0.0 0.00 0.00 0.00 16 1007.4
20260503183842 31 5 0.0 0.0 0.00 0.00 0.00 18 1007.5
20260503181835 31 5 0.0 0.0 0.00 0.00 0.00 18 1007.8
20260503180821 31 5 0.0 0.0 0.00 0.00 0.00 19 1007.9
20260503175803 30 5 0.0 0.0 0.00 0.00 0.00 20 1008.0
20260503174801 30 5 0.0 0.0 0.00 0.00 0.00 22 1008.1
20260503173800 29 5 0.0 0.0 0.00 0.00 0.00 22 1008.1
20260503172756 28 5 0.0 0.0 0.00 0.00 0.00 22 1008.4
20260503171755 28 5 0.0 0.0 0.00 0.00 0.00 23 1008.4
20260503170758 27 5 0.0 0.0 0.00 0.00 0.00 25 1008.5
20260503170754 28 5 0.0 0.0 0.00 0.00 0.00 24 1008.3